RH
96 95 95 96 96 96 96 94 94 95 96 95 94 95 92 85 85 82 73 68 66 63 59 52 47 43 41 40 40 40 38 35 34 28 24 18 15 15 15 14 12 10 6
100 96 95 95 96 95 96 94 94 95 95 95 95 89 70 72 74 66 67 73 69 62 55 50 46 41 36 31 28 25 24 23 24 24 16 14 12 8 8 8 7 7 6
90 96 96 96 94 96 95 95 96 96 93 92 94 87 67 60 63 78 83 75 65 59 54 50 45 41 35 30 27 24 21 19 18 19 17 15 14 11 10 8 7 7 6
89 96 95 95 96 96 96 96 96 95 94 95 95 92 93 93 91 81 76 70 63 57 51 42 31 24 18 16 15 14 14 12 12 11 10 10 10 10 11 11 10 11 12
83 90 96 97 96 95 96 97 95 95 97 96 95 96 92 89 82 78 75 68 61 52 43 33 23 19 18 17 17 17 17 17 17 15 13 13 12 12 13 14 13 14 15
87 91 97 94 96 97 97 100 98 94 95 97 93 94 88 84 82 79 72 64 55 38 29 22 19 19 20 21 20 20 21 22 22 20 20 21 20 18 17 18 20 20 16
92 98 99 100 99 99 100 99 94 92 93 92 94 94 89 85 80 73 61 42 31 26 25 24 25 25 25 26 27 28 30 29 28 30 32 32 34 36 34 34 29 31 31
99 98 99 99 98 98 100 97 95 93 92 92 92 92 86 75 51 37 32 30 29 28 29 29 29 30 32 33 34 34 37 41 44 44 44 44 48 53 55 50 50 47 43
100 99 99 100 99 96 97 97 96 98 100 100 87 60 43 37 36 35 34 32 32 34 36 36 36 37 39 41 42 47 48 50 52 51 51 53 55 56 56 60 56 57 42
100 100 100 100 100 100 99 99 100 95 70 48 40 38 37 36 37 38 38 38 40 42 43 43 47 49 50 54 59 58 56 53 58 63 62 60 61 58 61 61 60 59 57
96 99 100 100 100 100 99 88 58 44 41 40 39 40 40 41 42 44 48 50 50 50 51 52 55 57 61 62 64 68 66 77 86 89 78 61 54 57 60 66 63 64 62
64 67 70 68 60 49 44 42 40 40 42 44 44 44 44 44 45 46 54 57 56 58 61 63 62 65 68 70 69 74 91 100 99 87 79 60 47 42 42 45 44 44 40
34 35 36 35 34 36 39 43 45 47 46 44 41 39 42 47 48 53 58 61 64 70 67 66 68 73 73 84 100 100 100 91 70 60 60 58 50 46 43 41 39 38 38
26 29 33 36 38 40 42 41 39 38 39 40 42 47 52 55 59 63 67 66 74 78 73 72 80 84 90 100 92 98 78 67 65 68 69 66 56 48 46 47 47 47 42
20 21 23 25 27 29 30 32 35 38 43 46 52 57 61 64 70 74 72 73 83 86 84 88 98 100 100 93 89 87 85 84 81 75 67 69 73 65 55 59 62 64 61
19 21 23 25 28 31 33 34 37 40 45 53 59 66 70 73 78 79 76 80 89 100 100 100 96 100 98 89 93 93 90 88 86 82 80 78 77 80 82 70 67 71 74
19 22 26 31 34 38 40 41 44 54 59 59 69 75 80 82 84 80 76 81 90 99 100 100 100 96 94 98 97 93 90 92 91 86 85 86 88 84 86 88 93 90 74
23 28 33 40 45 48 50 52 54 55 66 81 84 81 82 88 90 89 85 92 99 100 98 98 100 100 100 100 98 95 92 91 91 90 87 88 89 92 88 89 94 95 94
28 35 42 52 59 65 68 69 69 71 75 86 94 96 93 91 95 99 100 100 94 93 100 100 100 100 100 99 98 97 95 90 91 92 91 91 93 96 92 93 96 96 94
32 41 51 62 72 79 86 88 86 82 82 88 93 97 99 98 97 100 100 100 100 100 100 100 100 100 100 100 99 98 94 92 93 95 96 97 98 96 91 95 96 94 92
39 50 62 76 85 92 94 94 94 92 86 89 95 99 100 99 97 99 100 100 100 100 100 100 100 100 100 99 97 95 91 89 93 99 100 98 100 96 97 96 94 92 92
47 59 70 81 88 93 94 96 96 96 93 92 97 100 100 98 99 100 100 100 100 100 100 100 98 100 100 99 97 91 85 85 94 100 96 97 100 99 98 96 94 93 94
57 70 82 91 96 97 97 100 98 97 96 99 100 100 100 100 98 100 100 100 100 100 100 98 96 97 100 99 95 91 92 95 99 99 99 100 97 96 99 99 99 97 96
70 82 93 99 100 100 100 100 100 100 98 100 100 100 100 100 100 100 100 100 100 100 100 99 100 99 99 100 99 100 100 98 98 100 100 100 97 98 98 97 94 94 95
85 95 98 99 100 100 100 100 100 100 100 100 100 100 100 100 100 100 100 100 100 100 100 100 100 100 100 99 100 100 100 100 100 100 100 98 94 93 95 98 98 100 97
95 99 100 100 100 100 100 100 100 100 100 100 100 100 100 100 100 100 100 100 100 100 100 100 100 99 98 100 100 100 100 100 100 100 100 100 99 95 95 93 90 92 93
Wind_Speed
23 28 30 30 27 27 28 27 24 24 23 21 19 17 16 15 16 18 20 22 25 26 27 28 29 30 32 34 35 37 38 39 42 39 41 40 41 43 45 47 47 47 46
26 29 31 32 29 28 27 26 23 20 18 17 17 17 18 20 21 23 25 26 26 27 28 29 31 32 33 34 35 36 37 38 41 41 37 39 41 41 43 45 46 47 46
31 33 33 30 27 23 22 21 21 20 20 21 22 23 25 25 27 29 29 29 29 30 30 31 32 33 34 35 37 38 38 38 40 42 39 39 40 41 43 43 43 44 45
28 30 33 32 27 26 24 23 21 20 21 23 25 28 29 29 29 30 30 30 30 31 32 33 33 34 33 34 36 37 36 38 39 40 42 37 39 39 42 43 43 42 41
26 28 29 29 27 26 22 21 20 22 24 25 27 29 30 30 30 31 31 32 32 33 34 35 35 35 35 35 35 35 35 36 37 38 40 40 35 36 37 40 43 42 40
23 26 29 30 27 24 23 22 22 23 24 27 28 29 29 30 30 30 32 33 33 34 34 35 36 36 35 34 34 35 34 34 35 36 37 38 36 35 36 38 40 41 41
22 24 26 28 27 25 24 23 24 25 27 28 28 29 29 30 31 32 33 34 33 33 33 34 34 34 34 33 31 31 31 31 32 33 35 35 35 35 34 37 35 38 38
22 23 26 27 26 24 25 26 27 28 28 28 29 29 30 30 32 33 34 34 33 32 32 32 33 31 30 30 30 30 29 29 29 30 33 35 35 36 36 37 37 37 38
19 21 21 21 23 26 26 27 28 27 28 30 30 31 31 30 31 32 33 33 32 31 30 29 29 28 26 27 28 27 28 28 27 29 31 33 34 35 35 36 37 38 40
17 19 21 23 25 26 27 27 29 30 31 32 32 32 31 30 30 31 31 31 29 28 28 27 26 25 24 25 26 27 28 26 28 28 30 32 33 34 34 35 38 41 42
17 19 21 24 25 27 28 30 31 32 32 31 30 30 28 28 27 28 28 28 27 26 25 24 24 24 24 23 24 26 26 24 25 27 29 33 33 34 35 35 37 39 42
18 20 22 24 27 28 29 30 30 30 30 29 28 28 27 27 26 26 27 27 25 25 23 23 23 23 23 23 23 23 21 25 29 32 34 36 37 38 38 40 41 43 44
18 20 23 24 26 27 27 28 28 28 28 28 28 27 27 27 26 25 26 25 24 24 22 22 23 22 22 20 22 23 27 30 31 31 32 34 36 38 39 41 41 42 44
18 20 21 23 24 25 26 27 28 28 28 27 27 26 26 25 25 24 24 24 23 22 21 21 20 20 21 20 20 22 24 26 28 28 28 28 30 32 33 34 35 35 38
17 19 21 23 24 26 26 27 27 27 27 27 26 26 26 24 24 23 23 24 22 21 20 18 16 16 22 24 23 23 23 24 25 26 26 26 26 27 28 28 29 30 32
18 19 21 23 24 25 26 26 26 26 26 26 26 26 25 25 24 23 24 24 23 20 21 23 22 25 28 27 27 26 26 26 26 26 27 27 26 25 25 24 26 28 29
19 21 22 23 24 24 25 25 25 25 25 25 25 25 25 24 24 24 24 25 25 24 23 23 26 29 29 29 28 27 26 25 26 26 26 27 27 26 26 25 24 26 27
21 22 23 24 24 24 24 25 25 24 24 23 25 25 23 22 23 23 23 24 26 27 28 28 28 28 28 27 27 27 27 26 26 26 26 27 27 27 27 26 25 26 26
23 24 24 25 25 25 25 25 25 24 24 23 22 23 24 22 21 22 22 25 28 27 27 27 26 26 26 25 26 26 26 26 27 27 27 28 28 28 27 27 26 27 27
24 25 25 26 26 26 26 25 25 25 24 23 22 21 21 22 20 21 22 25 26 26 27 26 25 25 24 24 25 26 26 26 27 28 28 29 28 27 26 27 27 27 27
25 25 26 26 26 26 26 26 25 25 24 22 21 20 21 21 21 20 21 21 23 25 25 25 24 23 23 24 25 25 26 26 27 27 27 27 27 26 26 27 27 27 28
26 25 26 26 26 26 26 25 24 23 22 21 20 19 20 20 20 19 19 20 21 23 23 23 22 22 23 24 24 25 26 27 27 27 26 26 26 26 26 27 27 28 29
25 25 25 25 24 24 23 22 22 21 20 19 19 19 19 19 19 18 18 19 20 21 21 22 21 20 21 21 24 25 25 24 25 26 25 25 25 26 28 29 29 30 31
24 23 22 22 22 21 20 20 20 20 19 17 17 17 17 17 17 17 16 16 17 17 18 17 17 17 18 21 22 22 23 23 24 23 25 27 28 28 29 31 31 32 33
22 21 22 21 20 19 19 19 18 17 16 16 15 15 15 15 15 15 14 14 13 12 12 12 13 16 19 21 21 22 23 23 25 25 27 29 31 31 32 33 33 34 34
21 20 20 20 19 18 17 16 16 15 14 13 13 13 13 13 12 12 12 11 10 10 10 11 14 19 21 21 21 22 23 24 26 28 29 31 32 32 32 33 34 35 38
Wind_Direction
227 226 228 234 238 237 241 246 251 250 250 256 266 275 281 280 277 275 274 273 274 275 276 276 276 275 273 272 271 270 270 270 269 268 270 269 268 266 266 267 266 264 262
241 239 237 235 239 243 246 250 257 264 269 271 273 269 264 265 268 274 278 278 277 277 279 279 280 280 279 279 277 275 274 273 273 272 268 268 266 266 265 265 265 265 265
247 245 241 244 247 250 253 253 254 255 259 260 260 261 263 265 272 278 278 278 280 280 281 282 280 279 279 278 278 277 276 275 274 274 271 268 268 267 266 266 266 267 267
251 249 247 246 244 244 247 251 256 262 264 264 264 264 268 273 275 276 276 277 279 281 282 282 281 280 278 276 275 276 276 275 274 273 273 269 268 268 269 269 267 266 267
249 248 247 245 245 247 252 256 261 264 264 265 267 270 272 275 275 276 277 280 282 283 283 282 280 278 277 275 274 273 272 272 272 273 273 273 266 267 267 267 270 272 269
249 247 243 244 246 249 253 257 260 262 264 266 269 272 273 274 274 275 276 278 278 277 276 276 276 275 273 271 270 271 270 270 271 273 273 274 273 266 263 265 268 270 271
250 247 245 245 246 250 255 258 261 263 265 267 270 271 272 274 276 277 277 276 275 274 273 272 271 271 270 270 269 269 270 271 272 272 274 275 274 276 276 272 270 271 272
248 247 246 246 247 248 249 255 259 263 266 267 269 270 273 274 274 273 272 271 271 270 269 268 267 267 268 269 269 269 270 270 271 272 271 272 272 272 271 273 275 272 271
248 245 243 242 242 249 257 263 268 272 275 275 274 274 273 272 271 270 269 270 270 270 270 269 270 268 268 268 270 270 269 272 273 273 273 273 273 272 272 272 271 272 270
244 241 239 243 249 257 263 267 270 272 272 272 272 271 271 270 268 268 268 269 271 272 272 272 272 274 271 270 272 275 274 276 275 274 274 275 275 275 273 270 270 269 272
247 247 248 251 256 261 265 269 270 272 272 272 272 272 271 270 267 267 268 269 270 269 269 270 271 273 274 273 272 273 278 280 278 276 275 275 276 276 276 275 272 270 269
251 253 256 259 263 266 269 271 272 273 274 275 275 275 273 271 269 267 266 267 267 268 270 272 273 275 274 271 270 274 279 272 266 272 277 280 281 280 278 276 274 273 273
265 266 266 267 268 270 271 273 275 276 277 277 276 275 273 272 270 267 265 265 266 269 272 274 276 275 273 276 270 263 262 269 276 280 283 285 284 283 282 279 276 273 270
273 274 274 275 276 277 278 278 278 279 279 279 278 276 274 272 270 267 263 262 264 268 272 274 276 276 275 273 273 270 273 274 276 280 286 291 291 287 284 282 279 277 274
286 284 283 282 281 281 280 280 280 280 280 280 279 278 276 273 270 267 263 261 262 265 268 268 272 273 282 275 279 279 280 282 284 286 288 291 295 293 289 286 283 280 277
294 292 289 286 284 282 281 281 280 279 278 278 278 276 274 273 270 265 259 256 255 259 262 262 261 265 267 275 281 282 285 288 290 291 293 293 295 295 297 292 286 282 280
299 296 293 289 287 285 285 284 282 281 280 278 275 273 272 270 267 264 259 257 255 254 256 258 253 259 269 276 279 282 284 286 289 292 293 294 294 295 294 295 294 289 284
298 295 293 289 287 286 286 285 284 283 281 279 279 279 274 270 265 261 257 252 252 249 250 253 261 265 269 274 278 281 282 285 288 291 292 293 293 292 292 293 293 292 292
298 295 293 290 288 288 287 287 287 285 283 281 277 275 276 272 266 261 255 250 250 254 255 257 260 265 270 274 279 282 283 285 289 292 293 293 293 291 290 291 291 291 293
298 295 292 289 288 288 288 288 288 286 284 280 277 274 272 271 268 261 256 253 254 255 256 258 262 268 272 276 280 282 283 285 289 292 293 292 292 290 291 290 289 290 290
299 295 291 288 287 287 287 287 287 286 284 281 278 276 273 271 270 268 262 259 255 254 255 259 262 267 274 278 281 282 284 289 292 292 291 291 292 292 291 290 290 290 291
300 296 291 288 287 287 287 288 287 285 284 281 277 275 273 272 272 269 266 261 258 256 257 260 264 271 277 280 281 284 289 291 292 291 291 291 291 291 291 291 291 291 291
300 296 292 290 288 288 288 289 289 288 286 282 278 276 274 274 273 270 267 263 261 259 259 262 268 273 279 282 286 290 292 292 292 291 292 290 289 291 291 291 290 289 289
301 297 293 291 293 293 292 291 291 289 286 282 278 276 275 274 274 273 271 266 263 261 259 262 269 277 284 289 292 294 294 294 293 293 292 292 292 292 290 290 290 289 289
301 297 295 296 296 296 296 294 292 288 283 280 278 277 276 275 273 272 270 266 263 257 252 259 273 283 291 296 296 295 296 298 297 296 294 293 293 292 291 290 290 290 289
303 299 298 298 299 297 294 292 289 288 285 281 278 277 276 276 274 269 264 259 252 248 255 274 289 293 296 296 295 296 298 299 299 298 297 296 296 297 297 297 297 296 294